Overview Statistics Trail Chart Weather Telemetry Raw packets
 

This is the latest recevied weather packets stored in our database for station/object K1BES. If no packets are shown the sender has not sent any weather packets the latest 10 day(s).

<< 39 40 41 42 43 44 45 >>
Time Temp. Humidity Pressure Rain* Wind** Luminosity Snow
1788378096 32.22° C 70% 1015.8 hPa 0 mm - 820 W/m² -
1788377793 32.22° C 71% 1015.9 hPa 0 mm - 838 W/m² -
1788377493 32.22° C 71% 1015.9 hPa 0 mm - 861 W/m² -
1788377191 32.22° C 70% 1016 hPa 0 mm - 911 W/m² -
1788376890 32.22° C 71% 1016 hPa 0 mm - 900 W/m² -
1788376586 32.22° C 71% 1016.3 hPa 0 mm - 945 W/m² -
1788376285 32.22° C 72% 1016.2 hPa 0 mm - 955 W/m² -
1788375981 32.22° C 71% 1016.2 hPa 0 mm - 993 W/m² -
1788375676 32.22° C 71% 1016.3 hPa 0 mm - 561 W/m² -
1788375372 32.22° C 71% 1016.4 hPa 0 mm - 1026 W/m² -
1788375068 32.22° C 72% 1016.5 hPa 0 mm - 1031 W/m² -
1788374763 31.67° C 73% 1016.8 hPa 0 mm - 1062 W/m² -
1788374458 31.67° C 73% 1016.5 hPa 0 mm - 588 W/m² -
1788374154 31.67° C 73% 1016.9 hPa 0 mm - 1136 W/m² -
1788373850 32.22° C 72% 1016.8 hPa 0 mm - 1097 W/m² -
1788373546 31.67° C 72% 1017 hPa 0 mm - 1066 W/m² -
1788373242 31.67° C 73% 1017 hPa 0 mm - 1056 W/m² -
1788372938 32.22° C 71% 1017 hPa 0 mm - 274 W/m² -
1788372637 32.22° C 71% 1017.2 hPa 0 mm - 1117 W/m² -
1788372332 32.22° C 70% 1017.3 hPa 0 mm - 1077 W/m² -
1788372029 32.22° C 71% 1017.3 hPa 0 mm - 1189 W/m² -
1788371728 32.22° C 71% 1017.1 hPa 0 mm - 1168 W/m² -
1788371424 32.22° C 70% 1017.3 hPa 0 mm - 1117 W/m² -
1788371121 32.22° C 70% 1017.3 hPa 0 mm - 1097 W/m² -
1788370816 32.22° C 69% 1017.3 hPa 0 mm - 1046 W/m² -

* Rain latest hour (hover to see other rain measurements)
** Current wind speed in m/s (hover to see current wind gust speed)